Tracking 35275 objects as of 9-Sep-2026
HD Live streaming from Space Station
objects crossing your sky now

STARLINK-34045

Track STARLINK-34045 now!
10-day predictions
STARLINK-34045 is classified as:


NORAD ID: 63979
Int'l Code: 2025-099AD
Launch date: May 13, 2025
Source: United States (US)
Launch site: AIR FORCE EASTERN TEST RANGE (AFETR)
Your satellite tracking list
Your tracking list is empty




NASA's NSSDC Master Catalog

Two Line Element Set (TLE):
1 63979U 25099AD  26251.35345930  .00010447  00000-0  38849-3 0  9998
2 63979  42.9989 221.0429 0000702 268.0398  92.0373 15.27591033 75228
Source of the keplerian elements: AFSPC